When you browse on this site, cookies collect data to enhance your experience and personalize the content and advertising you see.
Visit our Privacy Policy to learn more. By continuing to use the site, you agree to this use of cookies and data.
  • In Germany
  • List of Countries
  • For 7 days
  • Water Temperature
  • Satellite Maps
  • Weather Map
  • Weather Widgets
  • user-avatar
    Login

    Hourly Weather Wiktoria

    Today, 22 May, Wednesday

    Time Temperature Precipitation Wind Pressure Humidity
    00:00 +11°C° 0 mm 1 mps 758 mmHg 89%
    01:00 +11°C° 0 mm 1 mps 758 mmHg 90%
    02:00 +11°C° 0 mm 1 mps 758 mmHg 90%
    03:00 +11°C° 0 mm 1 mps 758 mmHg 91%
    04:00 +9°C° 0 mm 2 mps 758 mmHg 91%
    05:00 +10°C° 0 mm 1 mps 758 mmHg 91%
    06:00 +10°C° 0 mm 1 mps 759 mmHg 92%
    07:00 +10°C° 0 mm 1 mps 759 mmHg 92%
    08:00 +11°C° 0 mm 1 mps 759 mmHg 86%
    09:00 +13°C° 0 mm 1 mps 759 mmHg 80%
    10:00 +15°C° 0 mm 1 mps 759 mmHg 74%
    11:00 +16°C° 0 mm 1 mps 759 mmHg 69%
    12:00 +19°C° 0 mm 1 mps 759 mmHg 64%
    13:00 +20°C° 0 mm 1 mps 759 mmHg 59%
    14:00 +20°C° 0 mm 1 mps 758 mmHg 60%
    15:00 +20°C° 0 mm 1 mps 758 mmHg 61%
    16:00 +18°C° 0 mm 0 mps 758 mmHg 61%
    17:00 +16°C° 0 mm 0 mps 758 mmHg 67%
    18:00 +14°C° 0 mm 0 mps 758 mmHg 72%
    19:00 +14°C° 0 mm 1 mps 759 mmHg 78%
    20:00 +13°C° 0 mm 1 mps 759 mmHg 79%
    21:00 +13°C° 0 mm 1 mps 759 mmHg 81%
    22:00 +12°C° 0 mm 1 mps 759 mmHg 82%
    23:00 +12°C° 0 mm 1 mps 759 mmHg 84%

    Tomorrow, 23 May, Thursday

    Time Temperature Precipitation Wind Pressure Humidity
    00:00 +10°C° 0 mm 2 mps 759 mmHg 86%
    01:00 +10°C° 0 mm 2 mps 759 mmHg 87%
    02:00 +10°C° 0 mm 2 mps 759 mmHg 88%
    03:00 +9°C° 0 mm 2 mps 759 mmHg 89%
    04:00 +9°C° 0 mm 2 mps 758 mmHg 90%
    05:00 +9°C° 0 mm 2 mps 758 mmHg 90%
    06:00 +8°C° 0 mm 2 mps 759 mmHg 90%
    07:00 +8°C° 0 mm 2 mps 759 mmHg 91%
    08:00 +10°C° 0 mm 2 mps 759 mmHg 84%
    09:00 +11°C° 0 mm 3 mps 759 mmHg 77%
    10:00 +13°C° 0 mm 3 mps 759 mmHg 71%
    11:00 +16°C° 0 mm 3 mps 758 mmHg 66%
    12:00 +17°C° 0 mm 3 mps 757 mmHg 60%
    13:00 +19°C° 0 mm 3 mps 757 mmHg 55%
    14:00 +19°C° 0 mm 3 mps 756 mmHg 56%
    15:00 +19°C° 0 mm 3 mps 756 mmHg 57%
    16:00 +19°C° 0 mm 3 mps 755 mmHg 58%
    17:00 +17°C° 0 mm 3 mps 755 mmHg 60%
    18:00 +16°C° 0 mm 3 mps 755 mmHg 62%
    19:00 +13°C° 0 mm 3 mps 755 mmHg 64%
    20:00 +13°C° 0 mm 4 mps 755 mmHg 62%
    21:00 +12°C° 0 mm 4 mps 755 mmHg 61%
    22:00 +12°C° 0 mm 4 mps 755 mmHg 59%
    23:00 +12°C° 0 mm 4 mps 755 mmHg 59%

    Day after tomorrow, 24 May, Friday

    Time Temperature Precipitation Wind Pressure Humidity
    00:00 +12°C° 0 mm 4 mps 755 mmHg 60%
    01:00 +11°C° 0 mm 4 mps 754 mmHg 60%
    02:00 +11°C° 0 mm 4 mps 754 mmHg 61%
    03:00 +11°C° 0 mm 4 mps 754 mmHg 62%
    04:00 +11°C° 0 mm 4 mps 753 mmHg 63%
    05:00 +11°C° 0 mm 4 mps 753 mmHg 65%
    06:00 +10°C° 0 mm 4 mps 753 mmHg 66%
    07:00 +10°C° 0 mm 4 mps 753 mmHg 68%
    08:00 +11°C° 0 mm 4 mps 753 mmHg 66%
    09:00 +12°C° 0 mm 4 mps 753 mmHg 64%
    10:00 +14°C° 0 mm 4 mps 753 mmHg 62%
    11:00 +15°C° 0.1 mm 4 mps 753 mmHg 63%
    12:00 +16°C° 0.1 mm 3 mps 752 mmHg 64%
    13:00 +17°C° 0.1 mm 3 mps 752 mmHg 65%
    14:00 +18°C° 0 mm 3 mps 751 mmHg 66%
    15:00 +18°C° 0 mm 3 mps 751 mmHg 67%
    16:00 +18°C° 0 mm 3 mps 751 mmHg 68%
    17:00 +17°C° 0 mm 2 mps 751 mmHg 71%
    18:00 +16°C° 0 mm 1 mps 751 mmHg 74%
    19:00 +15°C° 0 mm 1 mps 751 mmHg 77%
    20:00 +15°C° 0.1 mm 1 mps 751 mmHg 80%
    21:00 +15°C° 0.1 mm 2 mps 751 mmHg 83%
    22:00 +15°C° 0.1 mm 2 mps 752 mmHg 86%
    23:00 +15°C° 0.1 mm 2 mps 751 mmHg 87%

    25 May, Saturday

    Time Temperature Precipitation Wind Pressure Humidity
    00:00 +14°C° 0.1 mm 2 mps 751 mmHg 88%
    01:00 +14°C° 0.1 mm 2 mps 751 mmHg 89%
    02:00 +14°C° 0.2 mm 2 mps 750 mmHg 89%
    03:00 +14°C° 0.2 mm 2 mps 750 mmHg 89%
    04:00 +14°C° 0.2 mm 2 mps 750 mmHg 90%
    05:00 +14°C° 0.1 mm 2 mps 750 mmHg 90%
    06:00 +13°C° 0.1 mm 2 mps 750 mmHg 90%
    07:00 +13°C° 0.1 mm 2 mps 750 mmHg 90%
    08:00 +14°C° 0.2 mm 2 mps 750 mmHg 87%
    09:00 +15°C° 0.2 mm 2 mps 750 mmHg 84%
    10:00 +16°C° 0.2 mm 3 mps 750 mmHg 81%
    11:00 +17°C° 0.1 mm 3 mps 749 mmHg 76%
    12:00 +18°C° 0.1 mm 4 mps 749 mmHg 70%
    13:00 +19°C° 0.1 mm 5 mps 748 mmHg 65%
    14:00 +19°C° 0.3 mm 4 mps 747 mmHg 66%
    15:00 +19°C° 0.3 mm 4 mps 747 mmHg 67%
    16:00 +19°C° 0.3 mm 3 mps 747 mmHg 68%
    17:00 +17°C° 0.1 mm 3 mps 747 mmHg 69%
    18:00 +16°C° 0.1 mm 3 mps 747 mmHg 71%
    19:00 +15°C° 0.1 mm 2 mps 747 mmHg 72%
    20:00 +14°C° 0.2 mm 2 mps 747 mmHg 76%
    21:00 +14°C° 0.2 mm 2 mps 747 mmHg 80%
    22:00 +13°C° 0.2 mm 2 mps 747 mmHg 84%
    23:00 +13°C° 0.6 mm 2 mps 747 mmHg 87%

    26 May, Sunday

    Time Temperature Precipitation Wind Pressure Humidity
    00:00 +12°C° 0.6 mm 3 mps 747 mmHg 90%
    01:00 +11°C° 0.6 mm 3 mps 746 mmHg 92%
    02:00 +11°C° 0.4 mm 4 mps 746 mmHg 93%
    03:00 +11°C° 0.4 mm 4 mps 746 mmHg 94%
    04:00 +10°C° 0.4 mm 5 mps 746 mmHg 95%
    05:00 +10°C° 0 mm 4 mps 746 mmHg 95%
    06:00 +10°C° 0 mm 4 mps 746 mmHg 95%
    07:00 +8°C° 0 mm 4 mps 747 mmHg 95%
    08:00 +9°C° 0.1 mm 5 mps 747 mmHg 90%
    09:00 +10°C° 0.1 mm 6 mps 747 mmHg 84%
    10:00 +11°C° 0.1 mm 7 mps 747 mmHg 79%
    11:00 +11°C° 0.5 mm 8 mps 747 mmHg 77%
    12:00 +11°C° 0.5 mm 8 mps 747 mmHg 74%
    13:00 +11°C° 0.5 mm 8 mps 746 mmHg 71%
    14:00 +10°C° 0.4 mm 8 mps 746 mmHg 72%
    15:00 +10°C° 0.4 mm 9 mps 746 mmHg 73%
    16:00 +8°C° 0.4 mm 9 mps 746 mmHg 74%
    17:00 +8°C° 0.2 mm 7 mps 747 mmHg 77%
    18:00 +7°C° 0.2 mm 6 mps 748 mmHg 80%
    19:00 +6°C° 0.2 mm 5 mps 748 mmHg 82%
    20:00 +6°C° 0 mm 5 mps 749 mmHg 82%
    21:00 +5°C° 0 mm 5 mps 749 mmHg 82%
    22:00 +5°C° 0 mm 5 mps 750 mmHg 81%
    23:00 +5°C° 0 mm 5 mps 750 mmHg 82%

    27 May, Monday

    Time Temperature Precipitation Wind Pressure Humidity
    00:00 +5°C° 0 mm 5 mps 750 mmHg 83%
    01:00 +5°C° 0 mm 5 mps 750 mmHg 84%
    02:00 +4°C° 0 mm 4 mps 750 mmHg 86%
    03:00 +4°C° 0 mm 4 mps 751 mmHg 88%
    04:00 +4°C° 0 mm 3 mps 751 mmHg 90%
    05:00 +3°C° 0 mm 3 mps 751 mmHg 92%
    06:00 +4°C° 0 mm 2 mps 751 mmHg 93%
    07:00 +4°C° 0 mm 2 mps 752 mmHg 95%
    08:00 +5°C° 0 mm 2 mps 752 mmHg 89%
    09:00 +7°C° 0 mm 3 mps 752 mmHg 84%
    10:00 +8°C° 0 mm 3 mps 752 mmHg 79%
    11:00 +10°C° 0 mm 4 mps 751 mmHg 73%
    12:00 +10°C° 0 mm 5 mps 751 mmHg 66%
    13:00 +13°C° 0 mm 5 mps 750 mmHg 60%
    14:00 +12°C° 0 mm 5 mps 749 mmHg 64%
    15:00 +12°C° 0 mm 4 mps 749 mmHg 68%
    16:00 +11°C° 0 mm 3 mps 749 mmHg 72%
    17:00 +11°C° 0.1 mm 4 mps 748 mmHg 73%
    18:00 +11°C° 0.1 mm 4 mps 748 mmHg 74%
    19:00 +11°C° 0.1 mm 4 mps 748 mmHg 75%
    20:00 +10°C° 0.1 mm 4 mps 747 mmHg 77%
    21:00 +9°C° 0.1 mm 5 mps 747 mmHg 79%
    22:00 +9°C° 0.1 mm 5 mps 747 mmHg 81%
    23:00 +10°C° 0.2 mm 5 mps 746 mmHg 81%
    Show more